Terminal Aerodrome Forecast
Issued by NWS Wilmington, OH

Current Version | Previous Version | Graphics & Text | Print | Product List | Glossary On
Versions: 1 2 3 4 5 6 7 8 9 10 11 12 13 14 15 16 17 18 19 20 21 22 23
000
FTUS41 KILN 271120
TAFCMH
TAF
KCMH 271120Z 2712/2812 03003KT P6SM FEW040 BKN100
      TEMPO 2712/2714 4SM -RA BR BKN040
     FM271400 07004KT P6SM VCSH SCT025 BKN120
      TEMPO 2716/2720 4SM -RA BKN030
     FM272200 02004KT P6SM FEW025 BKN150
      TEMPO 2800/2802 00000KT 5SM BR SKC
     FM280200 04002KT 5SM BR FEW030=

USA.gov is the U.S. government's official web portal to all federal, state and local government web resources and services.